Simultaneous Nadir Overpasses (SNOs) Predictions

Prediction of SNOs between GOES-16 and METOP-B Satellite Orbit:

Table of predicted SNOs for the next 14.0 days since TLE Epoch: 1/25/2020
Index Date Time (GOES-16) GOES-16 Lat,Lon METOP-B Lat,Lon Distance(km) Time Diff (sec)
1 01/26/2020 02:18:54 -0.01, -75.19 0.71, -71.91 372.92 80
2 01/27/2020 14:35:06 0.00, -75.20 0.29, -76.48 145.50 80
3 01/28/2020 14:17:08 0.01, -75.20 -0.84, -71.49 424.16 80
4 01/30/2020 02:33:29 -0.01, -75.21 -0.18, -76.09 99.85 80
5 01/31/2020 02:15:30 -0.01, -75.21 0.90, -71.08 470.21 80
6 02/01/2020 14:31:42 0.00, -75.24 0.11, -75.65 47.20 80
7 02/04/2020 02:32:45 0.00, -75.25 0.01, -75.26 1.48 80
8 02/06/2020 14:30:58 -0.01, -75.29 -0.09, -74.82 52.94 80




NCC Satellite Simultaneous Nadir Overpasses (SNOs) Prediction Service
